sat.trackr.live / text

‹ back to catalog

STARLINK-34270

NORAD 64355 · 2025-126M

PAYLOAD ACTIVE UNKNOWN

§ Identity

Operator
Country
US
Launch date
2025-06-13
Launch site
AFWTR
Launch vehicle
Mass (kg)
RCS (m²)

Purposes: comms

External: N2YO · Heavens-Above · Gunter

§ Orbital elements

Epoch: 2026-05-25T03:25:34.948704Z

Period
96.11 min
Inclination
70.0007°
Eccentricity
0.0003630
Mean motion
14.98334749 rev/d
Perigee alt
569.5 km
Apogee alt
574.6 km
Semi-major
6,950.2 km
B*
2.1319e-4
RAAN
201.6959°
Arg perigee
268.3785°
Mean anomaly
91.6959°
Rev number
5,333

§ Raw data

STARLINK-342701 64355U 25126M   26145.14276561  .00002452  00000+0  21319-3 0  99902 64355  70.0007 201.6959 0003630 268.3785  91.6959 14.98334749 53337

JSON: /api/v1/satellites/64355 · /tle

For live sub-satellite position, see the globe view (requires WebGL).

§ Visibility from observer

Set your observer location to see the next 7 days of passes ≥ 10°. The values pass through the URL so the page stays shareable.

No JS? Fill the form by hand. The geolocation button needs JavaScript.